Wind_Speed
22 22 22 23 23 24 24 24 25 25 24 24 25 25 25 26 26 26 26 26 26 27 27 28 28 29 29 30 30 30 29 29 28 28 28 29 29 29 28 29 29 29 29
22 22 22 23 24 25 25 25 25 25 25 25 25 25 26 26 26 25 25 26 26 27 27 27 27 27 28 28 29 28 28 28 28 28 29 29 29 29 30 29 29 30 30
22 23 23 24 24 25 25 25 25 25 25 25 26 26 25 25 25 24 25 24 25 25 25 25 25 26 27 27 28 28 28 28 28 29 29 29 29 30 30 30 30 30 30
22 23 23 24 24 24 24 24 24 25 25 26 27 26 25 25 25 25 25 24 24 24 24 24 25 26 26 27 28 28 28 28 29 29 29 29 29 29 30 30 30 30 30
22 23 24 24 24 24 24 25 25 26 26 26 27 27 26 25 25 25 25 25 25 25 25 25 25 25 26 27 27 27 27 28 29 29 29 29 29 29 30 30 30 30 29
23 23 24 24 24 25 25 25 26 26 26 26 27 26 26 26 25 26 26 26 26 26 25 25 25 26 27 27 27 27 28 29 29 29 29 29 29 29 29 30 29 29 29
24 24 25 25 25 26 25 26 26 26 26 26 26 27 26 26 26 26 26 26 26 25 25 25 25 25 26 26 27 27 28 28 28 28 28 28 28 28 29 29 29 29 28
24 24 24 25 26 26 26 26 26 26 27 27 27 26 26 26 26 26 26 26 26 25 25 25 25 25 26 26 25 25 26 26 27 27 27 27 28 28 29 29 29 30 29
24 25 25 26 27 26 26 26 26 27 27 27 27 26 26 26 26 26 25 25 25 25 25 25 25 25 25 26 26 25 25 25 26 26 27 27 27 27 28 28 29 29 29
25 25 26 27 27 27 27 27 27 27 27 27 26 27 26 26 26 24 24 24 25 25 25 26 26 26 26 26 25 25 25 24 24 24 24 25 26 26 26 27 28 28 28
25 26 27 28 28 27 27 28 28 27 27 27 26 26 26 26 25 24 24 24 24 24 25 25 25 25 25 25 24 25 25 25 24 25 25 25 26 26 26 26 26 26 26
26 27 28 28 28 28 28 28 28 27 27 27 27 27 26 25 25 25 25 25 24 24 24 25 24 24 25 25 25 25 25 26 26 25 25 25 25 25 25 24 24 24 25
27 27 27 27 27 28 28 29 29 28 28 27 27 26 26 25 25 25 25 25 24 24 25 25 24 23 24 24 25 25 26 26 26 26 26 25 25 24 23 23 24 24 23
26 26 26 26 27 28 28 29 28 28 28 27 26 26 26 26 26 25 25 25 25 24 24 23 23 23 24 24 24 24 24 25 25 26 25 25 25 24 23 23 23 23 23
26 26 27 27 28 28 29 29 28 28 28 27 27 27 26 26 26 26 25 25 25 24 23 23 23 23 23 24 24 24 25 25 25 24 24 24 24 23 23 23 22 22 22
26 26 27 28 29 30 30 30 28 28 27 27 27 27 27 27 26 25 24 24 24 24 24 24 23 23 23 24 24 24 24 24 24 24 23 23 23 23 23 23 23 22 22
27 28 29 29 30 30 30 30 29 28 26 25 26 26 26 26 25 25 24 24 24 24 24 24 24 24 24 24 24 24 24 25 25 25 24 23 22 22 22 22 23 23 23
28 29 29 30 30 30 29 28 27 26 25 26 26 26 25 25 25 25 24 24 24 24 25 24 24 24 25 25 24 24 24 24 24 24 24 23 22 22 21 21 22 22 23
27 28 29 29 29 29 28 27 25 25 25 25 24 24 24 24 23 23 23 23 24 24 24 24 24 24 24 24 24 24 24 24 24 23 23 22 22 22 22 22 22 22 22
27 28 29 29 28 28 27 26 25 24 23 23 23 22 22 22 22 21 22 22 22 22 23 23 23 23 23 23 23 23 22 22 22 23 23 23 22 22 22 22 22 22 22
28 28 29 29 28 27 26 25 24 23 23 23 22 22 21 21 21 21 21 21 22 22 22 22 22 23 22 22 21 21 21 21 21 21 22 22 22 22 22 22 22 22 22
28 28 28 28 27 27 26 25 24 24 23 22 22 22 21 21 22 22 22 22 22 21 21 21 21 21 20 19 19 19 20 20 20 20 21 21 22 23 24 24 23 22 22
28 28 28 28 27 26 25 25 25 24 23 22 22 21 21 21 22 22 21 21 21 21 21 21 20 19 19 18 18 19 19 19 20 20 20 20 20 21 22 22 22 22 21
28 27 27 27 26 25 25 24 24 23 22 21 21 22 22 22 22 21 21 20 21 21 20 20 19 19 18 18 18 18 18 19 19 20 20 19 19 19 19 20 21 21 21
27 26 26 26 26 25 25 24 23 22 21 21 21 22 23 23 23 22 21 21 20 20 20 19 19 18 18 17 17 17 18 18 18 18 18 18 18 18 18 18 19 19 20
26 26 26 26 25 24 24 23 22 21 21 21 21 22 23 22 23 23 22 21 20 20 19 18 18 17 17 17 17 17 16 17 16 17 17 17 17 17 18 18 19 19 20
Wind_Direction
294 294 293 295 297 298 299 299 297 297 297 297 296 291 290 288 286 285 284 283 280 279 276 273 272 271 271 270 269 270 271 271 271 270 271 273 272 271 270 268 265 265 266
293 293 293 295 296 297 298 298 298 297 296 294 293 291 289 288 288 287 286 286 283 281 279 275 272 270 271 270 269 269 270 270 270 270 271 272 272 271 270 269 267 266 265
293 292 295 297 298 298 298 298 298 297 295 295 295 291 289 289 290 290 288 286 285 284 280 277 272 270 271 270 269 270 269 269 270 270 272 271 271 270 268 268 267 267 266
295 295 296 298 300 299 299 300 299 298 296 296 295 293 292 290 290 291 288 287 286 284 280 276 274 272 272 272 271 270 270 271 271 271 273 273 272 271 269 268 268 268 267
296 297 297 298 299 300 300 301 300 299 297 296 296 295 294 292 291 290 288 286 285 283 281 278 277 274 274 273 272 271 272 273 273 273 273 273 275 273 270 269 267 266 265
297 297 297 299 299 299 298 298 299 299 299 298 297 296 294 293 291 289 288 286 284 282 280 279 277 276 275 273 273 272 272 272 273 274 274 274 275 274 271 269 268 266 265
297 298 298 299 299 298 297 297 297 299 300 299 298 298 295 294 292 289 286 286 285 282 280 279 278 278 277 275 274 273 273 273 275 275 275 275 275 273 271 269 267 265 265
298 298 298 300 300 300 299 299 299 300 301 300 299 298 296 294 291 289 286 285 283 282 279 278 278 277 275 275 275 274 274 275 275 274 275 275 275 275 271 269 266 265 264
298 298 300 302 303 302 302 303 303 303 302 300 300 299 298 295 292 290 288 285 283 282 281 280 279 277 275 274 273 273 274 275 276 274 274 274 275 275 274 271 268 266 264
299 300 302 303 303 303 303 304 304 303 303 301 299 299 298 296 294 292 291 288 285 283 282 281 280 278 275 272 272 273 273 274 275 274 275 275 276 276 275 272 268 266 264
299 300 301 302 302 302 303 304 303 303 303 302 300 299 298 297 294 292 292 288 286 285 284 283 281 279 277 275 274 274 273 273 274 274 276 276 275 275 274 272 269 266 263
299 301 301 301 302 302 302 303 303 303 304 302 300 299 299 296 294 292 290 288 286 286 286 286 284 280 277 276 275 275 273 274 276 275 277 278 277 275 272 270 268 266 264
299 300 301 302 304 305 305 304 303 301 302 301 299 299 298 295 294 292 290 289 287 285 285 286 286 283 280 278 277 277 274 274 276 275 277 277 276 275 273 271 268 265 264
302 303 303 305 305 306 307 306 304 302 300 300 299 298 297 296 295 293 290 289 287 285 285 285 285 284 282 280 278 278 276 276 276 276 276 274 274 274 272 270 267 263 260
303 304 305 307 307 308 309 309 306 303 300 299 299 298 297 296 296 294 292 291 289 287 285 286 286 285 284 282 280 277 276 275 275 276 276 274 273 270 269 268 265 264 262
301 304 305 307 307 308 309 308 306 304 302 300 299 298 298 296 295 293 292 290 288 288 287 286 287 287 286 284 282 279 277 277 275 275 275 274 273 269 268 265 264 263 263
301 303 305 307 308 308 308 307 307 304 302 299 299 298 298 297 295 294 291 288 288 289 289 287 287 287 287 286 284 281 279 277 275 273 273 273 273 271 268 265 264 262 262
300 302 304 306 308 308 308 307 306 304 303 302 299 298 298 297 294 294 291 288 289 291 290 289 289 289 289 288 284 280 278 275 272 271 270 271 270 269 268 266 265 264 262
299 301 303 305 307 308 308 306 304 303 303 303 301 299 299 299 297 295 292 290 290 291 290 290 290 291 290 287 284 281 277 274 271 269 268 268 268 268 268 266 265 266 264
298 301 303 306 306 306 306 306 304 304 304 304 304 304 302 301 299 297 296 295 295 294 293 292 292 292 290 288 285 282 279 275 271 269 267 267 267 267 267 264 264 265 264
297 301 303 305 306 306 306 306 305 305 305 304 305 306 303 300 298 298 297 298 298 296 294 293 293 293 290 287 285 283 280 277 274 271 269 267 266 265 264 264 265 264 263
298 300 302 303 304 305 305 305 304 303 303 302 304 306 303 299 298 299 299 299 299 297 295 295 294 295 292 289 287 284 281 280 277 275 272 269 267 265 263 263 264 263 263
295 296 298 301 302 303 302 302 302 301 299 299 301 304 305 303 302 302 302 302 300 298 295 293 292 294 293 291 290 288 285 282 279 276 275 272 268 267 265 263 262 262 263
293 295 298 299 300 301 300 299 300 299 299 298 298 302 303 303 303 303 302 300 300 300 298 295 293 290 288 288 289 290 289 286 281 279 277 273 269 265 263 261 261 262 263
291 292 294 295 297 297 298 298 297 297 298 298 299 299 301 303 303 302 301 299 299 297 297 296 292 290 288 286 289 289 289 288 284 281 277 274 270 265 263 263 263 262 262
290 291 292 292 293 294 296 296 294 294 296 298 299 300 301 301 302 302 301 299 299 298 298 297 295 293 289 286 286 287 288 288 285 283 279 274 269 265 264 263 263 264 264
Height
5792 5791 5790 5788 5786 5784 5782 5780 5778 5776 5774 5772 5770 5768 5767 5766 5764 5763 5761 5760 5759 5758 5758 5758 5758 5758 5758 5758 5759 5759 5760 5760 5761 5762 5762 5762 5763 5763 5764 5764 5765 5766 5767
5787 5786 5784 5782 5781 5779 5777 5774 5772 5770 5768 5766 5764 5762 5760 5759 5757 5756 5754 5753 5752 5751 5750 5750 5750 5750 5750 5750 5751 5751 5752 5752 5753 5754 5755 5754 5754 5755 5755 5755 5756 5757 5758
5782 5781 5779 5777 5775 5773 5771 5769 5766 5764 5762 5760 5758 5756 5754 5752 5750 5749 5747 5745 5744 5743 5742 5742 5742 5742 5742 5742 5743 5743 5744 5744 5745 5745 5746 5746 5746 5745 5746 5747 5747 5748 5748
5777 5775 5774 5772 5770 5768 5765 5763 5761 5758 5756 5754 5752 5749 5747 5745 5744 5742 5740 5738 5737 5736 5735 5735 5735 5735 5735 5735 5735 5735 5736 5736 5736 5736 5737 5737 5737 5736 5736 5737 5738 5738 5739
5772 5770 5768 5766 5764 5762 5760 5757 5755 5753 5750 5748 5745 5743 5740 5738 5737 5735 5733 5731 5730 5729 5728 5727 5727 5727 5727 5727 5727 5727 5727 5728 5728 5728 5728 5728 5728 5727 5727 5728 5728 5729 5730
5767 5765 5762 5760 5758 5756 5754 5751 5749 5747 5744 5741 5739 5736 5734 5731 5729 5727 5726 5724 5723 5722 5721 5720 5719 5719 5719 5719 5718 5719 5719 5719 5720 5719 5720 5720 5719 5718 5718 5718 5719 5720 5722
5762 5759 5757 5754 5752 5750 5748 5745 5743 5740 5737 5735 5732 5729 5727 5724 5722 5720 5718 5717 5715 5714 5713 5712 5712 5711 5711 5711 5711 5711 5711 5711 5711 5711 5711 5711 5710 5710 5709 5709 5710 5711 5713
5756 5754 5751 5749 5746 5744 5741 5739 5736 5733 5731 5728 5725 5722 5719 5717 5715 5712 5710 5709 5708 5707 5706 5705 5704 5704 5703 5703 5703 5703 5703 5703 5703 5702 5702 5702 5701 5701 5700 5701 5701 5702 5703
5751 5748 5746 5743 5741 5738 5735 5732 5729 5726 5724 5721 5718 5715 5712 5710 5707 5705 5703 5701 5700 5699 5698 5697 5696 5696 5696 5695 5695 5695 5695 5695 5694 5694 5694 5693 5693 5692 5692 5691 5692 5693 5694
5745 5743 5740 5738 5735 5732 5729 5726 5722 5719 5717 5713 5711 5708 5705 5703 5700 5697 5695 5694 5693 5692 5691 5689 5688 5688 5687 5687 5687 5687 5687 5687 5686 5685 5685 5685 5684 5683 5683 5682 5683 5684 5685
5739 5737 5734 5731 5728 5725 5722 5719 5716 5713 5710 5707 5704 5701 5698 5696 5693 5691 5689 5687 5685 5684 5683 5682 5681 5680 5679 5679 5679 5679 5679 5678 5678 5677 5677 5676 5676 5675 5675 5674 5674 5675 5676
5733 5730 5727 5725 5721 5718 5715 5712 5709 5706 5703 5700 5697 5694 5691 5689 5686 5684 5682 5680 5678 5677 5676 5674 5673 5672 5672 5671 5671 5671 5670 5670 5670 5669 5669 5668 5668 5667 5667 5666 5666 5666 5667
5726 5724 5721 5718 5715 5711 5708 5705 5701 5698 5695 5692 5689 5687 5684 5682 5679 5677 5675 5673 5671 5670 5668 5667 5666 5665 5664 5663 5663 5662 5662 5662 5661 5661 5660 5660 5660 5659 5659 5659 5659 5659 5659
5720 5717 5714 5711 5708 5704 5701 5697 5694 5690 5688 5685 5682 5680 5677 5674 5672 5669 5667 5665 5664 5662 5661 5660 5659 5657 5656 5656 5655 5654 5654 5653 5653 5652 5652 5651 5651 5651 5651 5651 5651 5652 5653
5713 5710 5707 5704 5701 5697 5693 5689 5686 5683 5679 5677 5674 5672 5669 5667 5664 5662 5659 5658 5656 5655 5654 5653 5651 5650 5649 5648 5647 5646 5645 5645 5644 5644 5643 5643 5643 5643 5643 5644 5644 5645 5646
5706 5703 5700 5697 5693 5689 5686 5682 5678 5674 5671 5669 5666 5664 5661 5659 5656 5654 5652 5651 5649 5648 5646 5645 5644 5643 5641 5640 5638 5637 5637 5636 5636 5636 5635 5635 5635 5635 5636 5637 5637 5638 5639
5699 5696 5693 5690 5686 5682 5678 5674 5670 5667 5664 5661 5659 5656 5654 5651 5649 5647 5645 5644 5642 5641 5639 5638 5636 5635 5633 5631 5630 5629 5629 5628 5628 5628 5628 5627 5627 5628 5628 5629 5630 5630 5631
5692 5689 5686 5682 5678 5674 5670 5666 5663 5660 5657 5654 5652 5649 5647 5644 5642 5640 5638 5636 5635 5633 5632 5630 5628 5627 5625 5623 5622 5621 5620 5620 5620 5620 5620 5620 5620 5620 5621 5622 5623 5623 5624
5684 5681 5678 5675 5671 5667 5663 5660 5656 5653 5651 5648 5645 5643 5640 5638 5636 5634 5631 5630 5628 5626 5624 5622 5620 5619 5617 5615 5614 5613 5612 5612 5612 5612 5613 5613 5613 5614 5614 5615 5615 5616 5617
5676 5673 5670 5667 5664 5660 5657 5653 5650 5647 5645 5642 5639 5637 5634 5632 5629 5627 5625 5623 5621 5619 5616 5614 5613 5611 5610 5608 5606 5605 5605 5604 5604 5605 5605 5606 5606 5607 5607 5608 5608 5609 5609
5668 5666 5663 5660 5657 5654 5650 5647 5644 5641 5639 5636 5634 5631 5629 5626 5623 5621 5619 5617 5614 5612 5610 5608 5606 5604 5603 5601 5599 5598 5597 5597 5597 5597 5597 5598 5598 5599 5600 5600 5601 5601 5602
5661 5658 5656 5653 5650 5647 5644 5641 5638 5636 5633 5630 5628 5626 5623 5621 5618 5616 5613 5611 5609 5606 5604 5602 5600 5598 5596 5595 5593 5592 5591 5590 5590 5590 5590 5590 5590 5591 5592 5592 5593 5594 5595
5653 5651 5648 5646 5643 5640 5638 5635 5632 5630 5627 5625 5622 5620 5618 5616 5613 5611 5608 5606 5603 5601 5598 5596 5594 5592 5590 5589 5587 5586 5585 5584 5583 5583 5583 5583 5583 5583 5583 5584 5585 5586 5587
5645 5643 5640 5638 5636 5634 5631 5629 5626 5624 5621 5619 5617 5615 5613 5610 5608 5605 5603 5600 5598 5595 5593 5590 5589 5587 5585 5584 5582 5581 5579 5578 5577 5576 5576 5575 5575 5576 5576 5577 5578 5579 5580
5637 5635 5633 5631 5629 5627 5625 5623 5620 5618 5616 5614 5612 5610 5607 5605 5602 5600 5597 5595 5592 5590 5587 5585 5583 5581 5580 5578 5576 5575 5574 5572 5571 5570 5570 5569 5569 5569 5570 5571 5572 5573 5574
5629 5627 5626 5624 5622 5620 5618 5616 5614 5612 5610 5609 5606 5604 5602 5599 5597 5594 5591 5589 5586 5584 5582 5580 5578 5576 5574 5573 5571 5570 5569 5567 5566 5565 5564 5564 5564 5564 5565 5565 5566 5566 5567